When you browse on this site, cookies collect data to enhance your experience and personalize the content and advertising you see.
Visit our Privacy Policy to learn more. By continuing to use the site, you agree to this use of cookies and data.
  • In Österreich
  • Länderverzeichnis
  • Für 7 Tage
  • Wassertemperatur
  • Wetterkarte
  • News
  • Widgets
  • user-avatar
    Anmelden

    Stündliche Wetter Gulevichi

    Heute, 7 Juni, Sonntag

    Zeit Temperatur Niederschläge Wind Luftdruck Luftfeuchtigkeit
    00:00 +16°C° 0 mm 0 m/S 748 mmHg 89%
    01:00 +18°C° 0 mm 1 m/S 748 mmHg 90%
    02:00 +18°C° 0 mm 1 m/S 749 mmHg 91%
    03:00 +18°C° 0 mm 1 m/S 749 mmHg 92%
    04:00 +17°C° 0 mm 2 m/S 749 mmHg 93%
    05:00 +17°C° 0 mm 2 m/S 749 mmHg 94%
    06:00 +19°C° 0 mm 2 m/S 749 mmHg 91%
    07:00 +20°C° 0 mm 2 m/S 749 mmHg 89%
    08:00 +23°C° 0 mm 2 m/S 749 mmHg 87%
    09:00 +24°C° 0.4 mm 3 m/S 749 mmHg 82%
    10:00 +25°C° 0.4 mm 3 m/S 749 mmHg 77%
    11:00 +26°C° 0.4 mm 3 m/S 749 mmHg 72%
    12:00 +27°C° 0.8 mm 3 m/S 749 mmHg 70%
    13:00 +28°C° 0.8 mm 4 m/S 749 mmHg 67%
    14:00 +29°C° 0.8 mm 4 m/S 749 mmHg 65%
    15:00 +28°C° 0.8 mm 4 m/S 749 mmHg 65%
    16:00 +28°C° 0.8 mm 4 m/S 748 mmHg 65%
    17:00 +27°C° 0.8 mm 3 m/S 748 mmHg 65%
    18:00 +26°C° 0 mm 3 m/S 748 mmHg 71%
    19:00 +24°C° 0 mm 3 m/S 748 mmHg 76%
    20:00 +21°C° 0 mm 3 m/S 749 mmHg 82%
    21:00 +20°C° 0 mm 3 m/S 749 mmHg 85%
    22:00 +19°C° 0 mm 3 m/S 749 mmHg 88%
    23:00 +18°C° 0 mm 3 m/S 749 mmHg 91%

    Morgen, 8 Juni, Montag

    Zeit Temperatur Niederschläge Wind Luftdruck Luftfeuchtigkeit
    00:00 +18°C° 0 mm 3 m/S 749 mmHg 92%
    01:00 +18°C° 0 mm 3 m/S 749 mmHg 94%
    02:00 +17°C° 0 mm 3 m/S 749 mmHg 95%
    03:00 +17°C° 0 mm 3 m/S 749 mmHg 95%
    04:00 +17°C° 0 mm 3 m/S 749 mmHg 95%
    05:00 +17°C° 0 mm 3 m/S 748 mmHg 95%
    06:00 +19°C° 0 mm 3 m/S 749 mmHg 89%
    07:00 +21°C° 0 mm 3 m/S 749 mmHg 83%
    08:00 +22°C° 0 mm 4 m/S 749 mmHg 77%
    09:00 +25°C° 0 mm 4 m/S 749 mmHg 71%
    10:00 +26°C° 0 mm 4 m/S 749 mmHg 65%
    11:00 +28°C° 0 mm 4 m/S 749 mmHg 59%
    12:00 +28°C° 0 mm 4 m/S 749 mmHg 58%
    13:00 +29°C° 0 mm 4 m/S 749 mmHg 57%
    14:00 +29°C° 0 mm 4 m/S 749 mmHg 56%
    15:00 +29°C° 0 mm 4 m/S 748 mmHg 58%
    16:00 +28°C° 0 mm 4 m/S 748 mmHg 61%
    17:00 +28°C° 0 mm 3 m/S 748 mmHg 63%
    18:00 +26°C° 0 mm 3 m/S 748 mmHg 70%
    19:00 +25°C° 0 mm 3 m/S 748 mmHg 76%
    20:00 +22°C° 0 mm 3 m/S 748 mmHg 82%
    21:00 +21°C° 0 mm 3 m/S 748 mmHg 86%
    22:00 +20°C° 0 mm 2 m/S 748 mmHg 89%
    23:00 +19°C° 0 mm 2 m/S 749 mmHg 92%

    übermorgen, 9 Juni, Dienstag

    Zeit Temperatur Niederschläge Wind Luftdruck Luftfeuchtigkeit
    00:00 +19°C° 0 mm 2 m/S 749 mmHg 93%
    01:00 +19°C° 0 mm 2 m/S 749 mmHg 94%
    02:00 +18°C° 0 mm 3 m/S 749 mmHg 94%
    03:00 +18°C° 0 mm 3 m/S 749 mmHg 94%
    04:00 +18°C° 0 mm 3 m/S 749 mmHg 93%
    05:00 +18°C° 0 mm 3 m/S 748 mmHg 93%
    06:00 +20°C° 0 mm 3 m/S 749 mmHg 88%
    07:00 +21°C° 0 mm 3 m/S 749 mmHg 83%
    08:00 +24°C° 0 mm 3 m/S 749 mmHg 78%
    09:00 +25°C° 0 mm 4 m/S 749 mmHg 72%
    10:00 +27°C° 0 mm 4 m/S 749 mmHg 65%
    11:00 +28°C° 0 mm 5 m/S 749 mmHg 59%
    12:00 +29°C° 0 mm 5 m/S 749 mmHg 57%
    13:00 +29°C° 0 mm 5 m/S 749 mmHg 56%
    14:00 +30°C° 0 mm 5 m/S 749 mmHg 54%
    15:00 +29°C° 0 mm 4 m/S 749 mmHg 57%
    16:00 +29°C° 0 mm 4 m/S 748 mmHg 61%
    17:00 +29°C° 0 mm 4 m/S 748 mmHg 64%
    18:00 +27°C° 0 mm 3 m/S 748 mmHg 70%
    19:00 +26°C° 0 mm 3 m/S 748 mmHg 76%
    20:00 +24°C° 0 mm 3 m/S 748 mmHg 81%
    21:00 +22°C° 0 mm 3 m/S 749 mmHg 85%
    22:00 +22°C° 0 mm 3 m/S 749 mmHg 89%
    23:00 +21°C° 0 mm 3 m/S 749 mmHg 92%

    10 Juni, Mittwoch

    Zeit Temperatur Niederschläge Wind Luftdruck Luftfeuchtigkeit
    00:00 +21°C° 0 mm 3 m/S 749 mmHg 93%
    01:00 +20°C° 0 mm 3 m/S 749 mmHg 93%
    02:00 +20°C° 0 mm 3 m/S 749 mmHg 94%
    03:00 +20°C° 0 mm 3 m/S 749 mmHg 93%
    04:00 +20°C° 0 mm 3 m/S 749 mmHg 92%
    05:00 +19°C° 0 mm 3 m/S 749 mmHg 92%
    06:00 +21°C° 0 mm 3 m/S 749 mmHg 87%
    07:00 +22°C° 0 mm 4 m/S 749 mmHg 82%
    08:00 +23°C° 0 mm 4 m/S 749 mmHg 77%
    09:00 +26°C° 0 mm 4 m/S 749 mmHg 71%
    10:00 +27°C° 0 mm 5 m/S 749 mmHg 65%
    11:00 +29°C° 0 mm 5 m/S 749 mmHg 60%
    12:00 +30°C° 0 mm 5 m/S 748 mmHg 58%
    13:00 +30°C° 0 mm 5 m/S 748 mmHg 56%
    14:00 +32°C° 0 mm 6 m/S 748 mmHg 54%
    15:00 +30°C° 0 mm 5 m/S 748 mmHg 57%
    16:00 +30°C° 0 mm 5 m/S 748 mmHg 61%
    17:00 +30°C° 0 mm 4 m/S 748 mmHg 64%
    18:00 +28°C° 0 mm 4 m/S 748 mmHg 71%
    19:00 +26°C° 0 mm 3 m/S 748 mmHg 77%
    20:00 +25°C° 0 mm 3 m/S 748 mmHg 84%
    21:00 +24°C° 0 mm 3 m/S 748 mmHg 87%
    22:00 +22°C° 0 mm 3 m/S 748 mmHg 90%
    23:00 +21°C° 0 mm 3 m/S 748 mmHg 93%

    11 Juni, Donnerstag

    Zeit Temperatur Niederschläge Wind Luftdruck Luftfeuchtigkeit
    00:00 +21°C° 0 mm 3 m/S 748 mmHg 94%
    01:00 +20°C° 0 mm 3 m/S 748 mmHg 95%
    02:00 +20°C° 0 mm 2 m/S 748 mmHg 96%
    03:00 +20°C° 0 mm 3 m/S 748 mmHg 95%
    04:00 +20°C° 0 mm 3 m/S 748 mmHg 95%
    05:00 +20°C° 0 mm 3 m/S 748 mmHg 94%
    06:00 +21°C° 0 mm 3 m/S 748 mmHg 89%
    07:00 +24°C° 0 mm 3 m/S 748 mmHg 84%
    08:00 +25°C° 0 mm 3 m/S 748 mmHg 79%
    09:00 +27°C° 0 mm 4 m/S 748 mmHg 72%
    10:00 +28°C° 0 mm 4 m/S 748 mmHg 65%
    11:00 +30°C° 0 mm 5 m/S 748 mmHg 59%
    12:00 +30°C° 0 mm 5 m/S 748 mmHg 56%
    13:00 +32°C° 0 mm 5 m/S 748 mmHg 52%
    14:00 +32°C° 0 mm 5 m/S 747 mmHg 49%
    15:00 +32°C° 0 mm 4 m/S 747 mmHg 53%
    16:00 +32°C° 0 mm 4 m/S 747 mmHg 56%
    17:00 +30°C° 0 mm 3 m/S 747 mmHg 60%
    18:00 +28°C° 0 mm 3 m/S 747 mmHg 66%
    19:00 +27°C° 0 mm 3 m/S 747 mmHg 72%
    20:00 +25°C° 0 mm 3 m/S 747 mmHg 79%
    21:00 +24°C° 0 mm 3 m/S 747 mmHg 83%
    22:00 +23°C° 0 mm 2 m/S 747 mmHg 88%
    23:00 +21°C° 0 mm 2 m/S 747 mmHg 92%

    12 Juni, Freitag

    Zeit Temperatur Niederschläge Wind Luftdruck Luftfeuchtigkeit
    00:00 +21°C° 0 mm 2 m/S 747 mmHg 94%
    01:00 +20°C° 0 mm 2 m/S 747 mmHg 95%
    02:00 +20°C° 0 mm 2 m/S 746 mmHg 96%
    03:00 +20°C° 0 mm 3 m/S 746 mmHg 95%
    04:00 +20°C° 0 mm 3 m/S 746 mmHg 95%
    05:00 +19°C° 0 mm 3 m/S 746 mmHg 94%
    06:00 +21°C° 0 mm 3 m/S 746 mmHg 89%
    07:00 +24°C° 0 mm 3 m/S 746 mmHg 83%
    08:00 +25°C° 0 mm 3 m/S 746 mmHg 77%
    09:00 +27°C° 0 mm 3 m/S 746 mmHg 71%
    10:00 +28°C° 0 mm 4 m/S 746 mmHg 65%
    11:00 +30°C° 0 mm 4 m/S 746 mmHg 58%
    12:00 +30°C° 0 mm 4 m/S 746 mmHg 55%
    13:00 +32°C° 0 mm 4 m/S 746 mmHg 53%
    14:00 +33°C° 0 mm 4 m/S 746 mmHg 50%
    15:00 +32°C° 0 mm 4 m/S 746 mmHg 53%
    16:00 +32°C° 0 mm 4 m/S 745 mmHg 56%
    17:00 +32°C° 0 mm 4 m/S 745 mmHg 59%
    18:00 +29°C° 0 mm 3 m/S 745 mmHg 65%
    19:00 +27°C° 0 mm 3 m/S 746 mmHg 71%
    20:00 +25°C° 0 mm 3 m/S 746 mmHg 77%
    21:00 +24°C° 0 mm 3 m/S 746 mmHg 79%
    22:00 +23°C° 0 mm 2 m/S 746 mmHg 82%
    23:00 +21°C° 0 mm 2 m/S 746 mmHg 85%
    Mehr zeigen